RWD7 HRYR-HKJK

Flight info

Callsign RWD7
Flight time N/A
Altitude 37000
Route BOSAD1D BOSAD UL442 APLOG APLOG1A
Aircraft B738/M-SDE2E3FGHIRWXY/LB1

Departure

Time 2026-04-15 14:10
Airport Kigali International Airport (HRYR)

Arrival

Time N/A
Airport Jomo Kenyatta International Airport (HKJK)
Time Latitude Longitude Altitude Speed Heading
2026-04-15 14:00 -1.96585 30.13498 4895 ft 4 kts 352°
2026-04-15 14:00 -1.96610 30.13503 4896 ft 4 kts 331°
2026-04-15 14:01 -1.96620 30.13510 4903 ft 0 kts 278°
2026-04-15 14:05 -1.96617 30.13488 4893 ft 6 kts 278°
2026-04-15 14:05 -1.96605 30.13429 4902 ft 11 kts 283°
2026-04-15 14:06 -1.96587 30.13339 4899 ft 14 kts 281°
2026-04-15 14:06 -1.96571 30.13246 4899 ft 13 kts 279°
2026-04-15 14:06 -1.96558 30.13157 4899 ft 13 kts 277°
2026-04-15 14:06 -1.96548 30.13068 4899 ft 13 kts 270°
2026-04-15 14:07 -1.96591 30.12997 4898 ft 12 kts 228°
2026-04-15 14:07 -1.96653 30.12942 4901 ft 12 kts 245°
2026-04-15 14:07 -1.96672 30.12864 4900 ft 12 kts 268°
2026-04-15 14:07 -1.96660 30.12784 4895 ft 12 kts 280°
2026-04-15 14:08 -1.96645 30.12697 4892 ft 13 kts 280°
2026-04-15 14:08 -1.96628 30.12604 4901 ft 14 kts 280°
2026-04-15 14:08 -1.96621 30.12503 4897 ft 15 kts 242°
2026-04-15 14:08 -1.96631 30.12411 4895 ft 14 kts 319°
2026-04-15 14:09 -1.96601 30.12444 4902 ft 8 kts 95°
2026-04-15 14:09 -1.96610 30.12499 4895 ft 8 kts 101°
2026-04-15 14:09 -1.96621 30.12558 4899 ft 18 kts 100°
2026-04-15 14:09 -1.96686 30.12923 4899 ft 87 kts 99°
2026-04-15 14:10 -1.96822 30.13715 4896 ft 145 kts 100°
2026-04-15 14:10 -1.97038 30.14837 5225 ft 163 kts 104°
2026-04-15 14:10 -1.97326 30.15927 5918 ft 170 kts 103°
2026-04-15 14:10 -1.97525 30.17088 6655 ft 170 kts 97°
2026-04-15 14:11 -1.97713 30.18352 7015 ft 199 kts 98°
2026-04-15 14:11 -1.97940 30.19801 7224 ft 223 kts 98°
2026-04-15 14:11 -1.98064 30.21393 7474 ft 244 kts 83°
2026-04-15 14:11 -1.97517 30.23084 7705 ft 268 kts 73°
2026-04-15 14:12 -1.97215 30.24965 8270 ft 277 kts 86°
2026-04-15 14:12 -1.97056 30.26880 9091 ft 278 kts 85°
2026-04-15 14:12 -1.96883 30.28820 9968 ft 281 kts 85°
2026-04-15 14:12 -1.96692 30.30791 10568 ft 291 kts 85°
2026-04-15 14:13 -1.96504 30.32871 10733 ft 315 kts 87°
2026-04-15 14:13 -1.96307 30.35119 11259 ft 329 kts 84°
2026-04-15 14:13 -1.96036 30.37392 12040 ft 333 kts 83°
2026-04-15 14:13 -1.95752 30.39687 12973 ft 330 kts 83°
2026-04-15 14:14 -1.95469 30.41996 13624 ft 336 kts 83°
2026-04-15 14:14 -1.95186 30.44337 14187 ft 341 kts 83°
2026-04-15 14:14 -1.94905 30.46682 14799 ft 344 kts 83°
2026-04-15 14:14 -1.94621 30.49074 15401 ft 347 kts 83°
2026-04-15 14:15 -1.94334 30.51495 15945 ft 352 kts 83°
2026-04-15 14:15 -1.94047 30.53921 16550 ft 355 kts 83°
2026-04-15 14:15 -1.93756 30.56387 17163 ft 357 kts 83°
2026-04-15 14:15 -1.93462 30.58880 17730 ft 361 kts 83°
2026-04-15 14:16 -1.93168 30.61370 18276 ft 365 kts 83°
2026-04-15 14:16 -1.92869 30.63906 18719 ft 369 kts 83°
2026-04-15 14:16 -1.92566 30.66475 19177 ft 372 kts 83°
2026-04-15 14:16 -1.92261 30.69057 19642 ft 375 kts 83°
2026-04-15 14:17 -1.91958 30.71629 20101 ft 379 kts 83°
2026-04-15 14:17 -1.91648 30.74256 20543 ft 382 kts 83°
2026-04-15 14:17 -1.91335 30.76905 20981 ft 386 kts 83°
2026-04-15 14:17 -1.91017 30.79597 21422 ft 389 kts 83°
2026-04-15 14:18 -1.90699 30.82301 21855 ft 392 kts 83°
2026-04-15 14:18 -1.90408 30.84992 22283 ft 395 kts 84°
2026-04-15 14:18 -1.90132 30.87752 22703 ft 399 kts 84°
2026-04-15 14:18 -1.89863 30.90522 23116 ft 402 kts 84°
2026-04-15 14:19 -1.89595 30.93288 23514 ft 405 kts 84°
2026-04-15 14:19 -1.89320 30.96105 23842 ft 408 kts 84°
2026-04-15 14:19 -1.89044 30.98921 24326 ft 405 kts 84°
2026-04-15 14:19 -1.88763 31.01760 24629 ft 410 kts 84°
2026-04-15 14:20 -1.88480 31.04614 24908 ft 414 kts 84°
2026-04-15 14:20 -1.88292 31.06510 25169 ft 414 kts 84°
2026-04-15 14:20 -1.87912 31.10326 25509 ft 419 kts 84°
2026-04-15 14:20 -1.87716 31.12292 25822 ft 418 kts 84°
2026-04-15 14:21 -1.87333 31.16129 26326 ft 419 kts 84°
2026-04-15 14:21 -1.87140 31.18063 26546 ft 421 kts 84°
2026-04-15 14:21 -1.86754 31.21936 27012 ft 422 kts 84°
2026-04-15 14:21 -1.86459 31.24893 27248 ft 427 kts 84°
2026-04-15 14:22 -1.86261 31.26865 27432 ft 429 kts 84°
2026-04-15 14:22 -1.85968 31.29806 27777 ft 430 kts 84°
2026-04-15 14:22 -1.85669 31.32806 28026 ft 433 kts 85°
2026-04-15 14:22 -1.85368 31.35825 28336 ft 435 kts 85°
2026-04-15 14:23 -1.85066 31.38853 28577 ft 438 kts 84°
2026-04-15 14:23 -1.84766 31.41861 28964 ft 438 kts 85°
2026-04-15 14:23 -1.84463 31.44902 29240 ft 441 kts 85°
2026-04-15 14:23 -1.84160 31.47934 29467 ft 444 kts 85°
2026-04-15 14:24 -1.83849 31.51058 29697 ft 447 kts 85°
2026-04-15 14:24 -1.83541 31.54135 29824 ft 452 kts 85°
2026-04-15 14:24 -1.83226 31.57281 30019 ft 455 kts 85°
2026-04-15 14:24 -1.82910 31.60442 30215 ft 457 kts 85°
2026-04-15 14:25 -1.82594 31.63595 30557 ft 455 kts 85°
2026-04-15 14:25 -1.82279 31.66747 30826 ft 455 kts 84°
2026-04-15 14:25 -1.81965 31.69893 31057 ft 456 kts 85°
2026-04-15 14:25 -1.81652 31.73019 31345 ft 456 kts 84°
2026-04-15 14:26 -1.81335 31.76190 31563 ft 457 kts 84°
2026-04-15 14:26 -1.81020 31.79329 31921 ft 455 kts 84°
2026-04-15 14:26 -1.80704 31.82495 32149 ft 457 kts 84°
2026-04-15 14:26 -1.80386 31.85663 32361 ft 458 kts 84°
2026-04-15 14:27 -1.80072 31.88807 32627 ft 458 kts 84°
2026-04-15 14:27 -1.79753 31.91994 32935 ft 458 kts 84°
2026-04-15 14:27 -1.79434 31.95178 33248 ft 457 kts 84°
2026-04-15 14:27 -1.79121 31.98314 33477 ft 458 kts 83°
2026-04-15 14:28 -1.78802 32.01494 33748 ft 458 kts 83°
2026-04-15 14:28 -1.78487 32.04639 34030 ft 458 kts 83°
2026-04-15 14:28 -1.78168 32.07816 34300 ft 457 kts 83°
2026-04-15 14:28 -1.77851 32.10985 34484 ft 458 kts 83°
2026-04-15 14:29 -1.77535 32.14131 34668 ft 459 kts 83°
2026-04-15 14:29 -1.77215 32.17322 34966 ft 458 kts 83°
2026-04-15 14:29 -1.76902 32.20450 35285 ft 455 kts 83°
2026-04-15 14:29 -1.76586 32.23595 35562 ft 454 kts 83°
2026-04-15 14:30 -1.76269 32.26759 35786 ft 454 kts 83°
2026-04-15 14:30 -1.75958 32.29863 36001 ft 454 kts 83°
2026-04-15 14:30 -1.75642 32.33006 36269 ft 453 kts 84°
2026-04-15 14:30 -1.75326 32.36152 36531 ft 452 kts 84°
2026-04-15 14:31 -1.75010 32.39301 36655 ft 455 kts 84°
2026-04-15 14:31 -1.74698 32.42412 36803 ft 452 kts 84°
2026-04-15 14:31 -1.74384 32.45544 36846 ft 450 kts 84°
2026-04-15 14:32 -1.73758 32.51776 36879 ft 453 kts 84°
2026-04-15 14:32 -1.73128 32.58049 36878 ft 458 kts 84°
2026-04-15 14:33 -1.72485 32.64444 36876 ft 462 kts 84°
2026-04-15 14:33 -1.71867 32.70809 36865 ft 459 kts 84°
2026-04-15 14:34 -1.71266 32.77077 36874 ft 451 kts 84°
2026-04-15 14:34 -1.70663 32.83357 36884 ft 451 kts 84°
2026-04-15 14:35 -1.70064 32.89574 36887 ft 450 kts 84°
2026-04-15 14:35 -1.69464 32.95793 36891 ft 451 kts 84°
2026-04-15 14:36 -1.68858 33.02063 36901 ft 453 kts 84°
2026-04-15 14:36 -1.68253 33.08333 36901 ft 455 kts 84°
2026-04-15 14:37 -1.67644 33.14632 36899 ft 457 kts 84°
2026-04-15 14:37 -1.67032 33.20961 36896 ft 459 kts 85°
2026-04-15 14:38 -1.66418 33.27310 36894 ft 461 kts 85°
2026-04-15 14:38 -1.65800 33.33708 36888 ft 461 kts 85°
2026-04-15 14:39 -1.65184 33.40072 36889 ft 461 kts 85°
2026-04-15 14:39 -1.64569 33.46432 36885 ft 461 kts 85°
2026-04-15 14:40 -1.63949 33.52839 36888 ft 460 kts 85°
2026-04-15 14:40 -1.63332 33.59171 36888 ft 459 kts 84°
2026-04-15 14:41 -1.62712 33.65498 36889 ft 458 kts 84°
2026-04-15 14:41 -1.62092 33.71834 36900 ft 456 kts 85°
2026-04-15 14:42 -1.61478 33.78111 36986 ft 455 kts 85°
2026-04-15 14:42 -1.60862 33.84408 36985 ft 454 kts 85°
2026-04-15 14:43 -1.60252 33.90656 36977 ft 452 kts 85°
2026-04-15 14:43 -1.59636 33.96946 36961 ft 452 kts 85°
2026-04-15 14:44 -1.59027 34.03162 36942 ft 451 kts 85°
2026-04-15 14:44 -1.58409 34.09421 36926 ft 451 kts 85°
2026-04-15 14:45 -1.57795 34.15640 36903 ft 453 kts 85°
2026-04-15 14:45 -1.57174 34.21942 36927 ft 458 kts 84°
2026-04-15 14:46 -1.56545 34.28289 36923 ft 461 kts 85°
2026-04-15 14:46 -1.55905 34.34689 36924 ft 462 kts 84°
2026-04-15 14:47 -1.55265 34.41092 36921 ft 462 kts 84°
2026-04-15 14:47 -1.54632 34.47431 36911 ft 455 kts 84°
2026-04-15 14:48 -1.54009 34.53655 36916 ft 450 kts 85°
2026-04-15 14:48 -1.53388 34.59885 36934 ft 450 kts 85°
2026-04-15 14:49 -1.52767 34.66123 36942 ft 456 kts 85°
2026-04-15 14:49 -1.52131 34.72499 36931 ft 462 kts 84°
2026-04-15 14:49 -1.51808 34.75727 36583 ft 468 kts 85°
2026-04-15 14:50 -1.51491 34.78916 36252 ft 464 kts 85°
2026-04-15 14:50 -1.51172 34.82109 35852 ft 459 kts 85°
2026-04-15 14:50 -1.50855 34.85297 35462 ft 455 kts 85°
2026-04-15 14:50 -1.50545 34.88404 35064 ft 451 kts 85°
2026-04-15 14:51 -1.50236 34.91504 34671 ft 448 kts 86°
2026-04-15 14:51 -1.50108 34.94600 34382 ft 440 kts 92°
2026-04-15 14:51 -1.50226 34.97620 34023 ft 436 kts 95°
2026-04-15 14:51 -1.50448 35.00628 33605 ft 432 kts 96°
2026-04-15 14:52 -1.50694 35.03626 33198 ft 429 kts 96°
2026-04-15 14:52 -1.50928 35.06584 32800 ft 425 kts 95°
2026-04-15 14:52 -1.51139 35.09497 32414 ft 422 kts 95°
2026-04-15 14:52 -1.51333 35.12416 32031 ft 418 kts 95°
2026-04-15 14:53 -1.51512 35.15316 31651 ft 415 kts 95°
2026-04-15 14:53 -1.51684 35.18197 31281 ft 412 kts 94°
2026-04-15 14:53 -1.51847 35.21011 30918 ft 409 kts 94°
2026-04-15 14:53 -1.52010 35.23847 30548 ft 406 kts 94°
2026-04-15 14:54 -1.52171 35.26655 30198 ft 403 kts 93°
2026-04-15 14:54 -1.52332 35.29468 29786 ft 401 kts 94°
2026-04-15 14:54 -1.52491 35.32241 29363 ft 397 kts 94°
2026-04-15 14:54 -1.52647 35.34955 28989 ft 394 kts 93°
2026-04-15 14:55 -1.52803 35.37687 28607 ft 390 kts 94°
2026-04-15 14:55 -1.52957 35.40361 28231 ft 387 kts 93°
2026-04-15 14:55 -1.53110 35.43031 27860 ft 383 kts 93°
2026-04-15 14:55 -1.53263 35.45690 27508 ft 380 kts 93°
2026-04-15 14:56 -1.53415 35.48323 27139 ft 377 kts 93°
2026-04-15 14:56 -1.53565 35.50929 26774 ft 374 kts 93°
2026-04-15 14:56 -1.53712 35.53498 26424 ft 372 kts 93°
2026-04-15 14:56 -1.53859 35.56059 26077 ft 369 kts 93°
2026-04-15 14:57 -1.54006 35.58614 25727 ft 367 kts 93°
2026-04-15 14:57 -1.54153 35.61169 25372 ft 365 kts 93°
2026-04-15 14:57 -1.54297 35.63678 25011 ft 363 kts 93°
2026-04-15 14:57 -1.54441 35.66197 24660 ft 362 kts 93°
2026-04-15 14:58 -1.54586 35.68710 24316 ft 360 kts 93°
2026-04-15 14:58 -1.54730 35.71218 23951 ft 359 kts 93°
2026-04-15 14:58 -1.54872 35.73702 23586 ft 358 kts 93°
2026-04-15 14:58 -1.55013 35.76162 23190 ft 357 kts 93°
2026-04-15 14:59 -1.55155 35.78641 22807 ft 355 kts 93°
2026-04-15 14:59 -1.55295 35.81073 22454 ft 352 kts 93°
2026-04-15 14:59 -1.55435 35.83519 22099 ft 349 kts 93°
2026-04-15 14:59 -1.55574 35.85945 21742 ft 347 kts 93°
2026-04-15 15:00 -1.55710 35.88322 21406 ft 344 kts 93°
2026-04-15 15:00 -1.55846 35.90704 21074 ft 342 kts 93°
2026-04-15 15:00 -1.55982 35.93080 20738 ft 339 kts 93°
2026-04-15 15:00 -1.56118 35.95441 20390 ft 338 kts 93°
2026-04-15 15:01 -1.56249 35.97746 20050 ft 335 kts 93°
2026-04-15 15:01 -1.56383 36.00075 19723 ft 333 kts 93°
2026-04-15 15:01 -1.56513 36.02360 19399 ft 332 kts 93°
2026-04-15 15:01 -1.56645 36.04661 19069 ft 330 kts 93°
2026-04-15 15:02 -1.56776 36.06955 18737 ft 328 kts 93°
2026-04-15 15:02 -1.56907 36.09241 18396 ft 328 kts 93°
2026-04-15 15:02 -1.57036 36.11495 18020 ft 327 kts 93°
2026-04-15 15:02 -1.57166 36.13767 17676 ft 325 kts 93°
2026-04-15 15:03 -1.57293 36.15991 17343 ft 322 kts 93°
2026-04-15 15:03 -1.57420 36.18226 17005 ft 320 kts 93°
2026-04-15 15:03 -1.57548 36.20451 16694 ft 317 kts 93°
2026-04-15 15:03 -1.57673 36.22646 16370 ft 314 kts 93°
2026-04-15 15:04 -1.57795 36.24795 16058 ft 312 kts 93°
2026-04-15 15:04 -1.57919 36.26960 15729 ft 310 kts 93°
2026-04-15 15:04 -1.58042 36.29108 15423 ft 308 kts 94°
2026-04-15 15:04 -1.58161 36.31230 15110 ft 307 kts 93°
2026-04-15 15:05 -1.58283 36.33359 14797 ft 306 kts 94°
2026-04-15 15:05 -1.58405 36.35493 14502 ft 305 kts 94°
2026-04-15 15:05 -1.58526 36.37601 14192 ft 304 kts 94°
2026-04-15 15:05 -1.58645 36.39690 13884 ft 303 kts 94°
2026-04-15 15:06 -1.58885 36.43893 13214 ft 300 kts 94°
2026-04-15 15:06 -1.59004 36.45973 12901 ft 299 kts 94°
2026-04-15 15:06 -1.59122 36.48047 12589 ft 296 kts 94°
2026-04-15 15:07 -1.59237 36.50071 12291 ft 294 kts 94°
2026-04-15 15:07 -1.59354 36.52117 11989 ft 293 kts 93°
2026-04-15 15:07 -1.59400 36.54143 11659 ft 291 kts 83°
2026-04-15 15:07 -1.58774 36.56031 11457 ft 288 kts 62°
2026-04-15 15:08 -1.57690 36.57718 11175 ft 287 kts 56°
2026-04-15 15:08 -1.56505 36.59296 10889 ft 285 kts 54°
2026-04-15 15:08 -1.55306 36.60871 10595 ft 283 kts 55°
2026-04-15 15:08 -1.54118 36.62449 10300 ft 283 kts 54°
2026-04-15 15:09 -1.52953 36.64015 10123 ft 277 kts 54°
2026-04-15 15:09 -1.51820 36.65554 9874 ft 277 kts 54°
2026-04-15 15:09 -1.50684 36.67104 9586 ft 275 kts 54°
2026-04-15 15:09 -1.49560 36.68642 9280 ft 273 kts 54°
2026-04-15 15:10 -1.48445 36.70167 8939 ft 273 kts 56°
2026-04-15 15:10 -1.47327 36.71698 8757 ft 267 kts 55°
2026-04-15 15:10 -1.46254 36.73164 8646 ft 260 kts 54°
2026-04-15 15:10 -1.45182 36.74593 8521 ft 252 kts 54°
2026-04-15 15:11 -1.44488 36.75511 8455 ft 247 kts 54°
2026-04-15 15:11 -1.43486 36.76866 8367 ft 239 kts 55°
2026-04-15 15:11 -1.42534 36.78174 8299 ft 230 kts 54°
2026-04-15 15:11 -1.41603 36.79457 8150 ft 226 kts 55°
2026-04-15 15:12 -1.40683 36.80727 7929 ft 223 kts 55°
2026-04-15 15:12 -1.39785 36.81963 7666 ft 217 kts 54°
2026-04-15 15:12 -1.38926 36.83143 7418 ft 204 kts 55°
2026-04-15 15:12 -1.38117 36.84257 7161 ft 190 kts 54°
2026-04-15 15:13 -1.37379 36.85273 6939 ft 171 kts 56°
2026-04-15 15:13 -1.36715 36.86187 6742 ft 152 kts 57°
2026-04-15 15:13 -1.36105 36.87031 6522 ft 150 kts 55°
2026-04-15 15:13 -1.35466 36.87907 6315 ft 159 kts 56°
2026-04-15 15:14 -1.34827 36.88787 6062 ft 156 kts 59°
2026-04-15 15:14 -1.34182 36.89679 5847 ft 163 kts 58°
2026-04-15 15:14 -1.33524 36.90582 5636 ft 158 kts 60°
2026-04-15 15:14 -1.33315 36.90872 5568 ft 158 kts 58°